Time,TemperatureF,DewpointF,PressureIn,WindDirection,WindDirectionDegrees,WindSpeedMPH,WindSpeedGustMPH,Humidity,HourlyPrecipIn,Conditions,Clouds,dailyrainin,SolarRadiationWatts/m^2,SoftwareType,DateUTC
2013-02-25 00:11:00,27.6,16.0,31.84,ENE,77,0.0,1.0,63,0.00,,,0.00,0,weatherlink.com 1.10,2013-02-25 07:11:00,
2013-02-25 00:26:00,27.9,17.0,31.84,ENE,77,0.0,1.0,64,0.00,,,0.00,0,weatherlink.com 1.10,2013-02-25 07:26:00,
2013-02-25 00:41:00,27.0,17.0,31.84,SSE,158,3.0,3.0,67,0.00,,,0.00,0,weatherlink.com 1.10,2013-02-25 07:41:00,
2013-02-25 00:56:00,26.8,18.0,31.83,SSE,157,0.0,3.0,68,0.00,,,0.00,0,weatherlink.com 1.10,2013-02-25 07:56:00,
2013-02-25 01:11:00,27.2,18.0,31.83,SSE,157,0.0,3.0,67,0.00,,,0.00,0,weatherlink.com 1.10,2013-02-25 08:11:00,
2013-02-25 01:26:00,26.8,18.0,31.83,SSE,157,0.0,0.0,70,0.00,,,0.00,0,weatherlink.com 1.10,2013-02-25 08:26:00,
2013-02-25 01:41:00,26.6,17.0,31.82,SSE,157,0.0,0.0,68,0.00,,,0.00,0,weatherlink.com 1.10,2013-02-25 08:41:00,
2013-02-25 01:56:00,26.7,18.0,31.82,SSE,157,0.0,2.0,70,0.00,,,0.00,0,weatherlink.com 1.10,2013-02-25 08:56:00,
2013-02-25 02:11:00,26.6,18.0,31.81,SSE,157,0.0,2.0,70,0.00,,,0.00,0,weatherlink.com 1.10,2013-02-25 09:11:00,
2013-02-25 02:26:00,26.5,17.0,31.81,SSE,157,0.0,2.0,67,0.00,,,0.00,0,weatherlink.com 1.10,2013-02-25 09:26:00,
2013-02-25 02:41:00,26.6,18.0,31.80,SSE,157,0.0,1.0,69,0.00,,,0.00,0,weatherlink.com 1.10,2013-02-25 09:41:00,
2013-02-25 02:56:00,26.5,17.0,31.79,SSE,157,0.0,0.0,68,0.00,,,0.00,0,weatherlink.com 1.10,2013-02-25 09:56:00,
2013-02-25 03:11:00,26.3,17.0,31.78,SSE,157,0.0,2.0,68,0.00,,,0.00,0,weatherlink.com 1.10,2013-02-25 10:11:00,
2013-02-25 03:26:00,27.4,17.0,31.77,SSE,161,3.0,8.0,65,0.00,,,0.00,0,weatherlink.com 1.10,2013-02-25 10:26:00,
2013-02-25 03:41:00,27.3,17.0,31.77,SSE,147,7.0,10.0,65,0.00,,,0.00,0,weatherlink.com 1.10,2013-02-25 10:41:00,
2013-02-25 03:56:00,27.6,17.0,31.76,SSE,152,8.0,11.0,64,0.00,,,0.00,0,weatherlink.com 1.10,2013-02-25 10:56:00,
2013-02-25 04:11:00,27.7,16.0,31.76,SE,134,5.0,10.0,63,0.00,,,0.00,0,weatherlink.com 1.10,2013-02-25 11:11:00,
2013-02-25 04:26:00,27.3,17.0,31.75,SSE,153,7.0,7.0,64,0.00,,,0.00,0,weatherlink.com 1.10,2013-02-25 11:26:00,
2013-02-25 04:41:00,27.3,17.0,31.74,SSE,167,3.0,10.0,64,0.00,,,0.00,0,weatherlink.com 1.10,2013-02-25 11:41:00,
2013-02-25 04:56:00,27.4,16.0,31.74,SE,146,2.0,9.0,63,0.00,,,0.00,0,weatherlink.com 1.10,2013-02-25 11:56:00,
2013-02-25 05:11:00,26.9,16.0,31.73,SSE,156,11.0,11.0,64,0.00,,,0.00,0,weatherlink.com 1.10,2013-02-25 12:11:00,
2013-02-25 05:26:00,27.6,16.0,31.72,SSE,164,8.0,14.0,61,0.00,,,0.00,0,weatherlink.com 1.10,2013-02-25 12:26:00,
2013-02-25 05:41:00,27.7,16.0,31.71,SE,142,11.0,11.0,61,0.00,,,0.00,0,weatherlink.com 1.10,2013-02-25 12:41:00,
2013-02-25 06:12:00,-999.0,-99.9,31.69,North,-999,-999.0,-999.0,-999,0.00,,,0.00,,weatherlink.com 1.10,2013-02-25 13:12:00,
2013-02-25 06:27:00,-999.0,-99.9,31.68,North,-999,-999.0,-999.0,-999,0.00,,,0.00,,weatherlink.com 1.10,2013-02-25 13:27:00,
2013-02-25 06:42:00,-999.0,-99.9,31.67,North,-999,-999.0,-999.0,-999,0.00,,,0.00,,weatherlink.com 1.10,2013-02-25 13:42:00,
2013-02-25 06:57:00,-999.0,-99.9,31.65,North,-999,-999.0,-999.0,-999,0.00,,,0.00,,weatherlink.com 1.10,2013-02-25 13:57:00,
2013-02-25 07:27:00,-999.0,-99.9,31.63,North,-999,-999.0,-999.0,-999,0.00,,,0.00,,weatherlink.com 1.10,2013-02-25 14:27:00,
2013-02-25 07:42:00,-999.0,-99.9,31.63,North,-999,-999.0,-999.0,-999,0.00,,,0.00,,weatherlink.com 1.10,2013-02-25 14:42:00,
2013-02-25 07:57:00,-999.0,-99.9,31.63,North,-999,-999.0,-999.0,-999,0.00,,,0.00,,weatherlink.com 1.10,2013-02-25 14:57:00,
2013-02-25 08:12:00,-999.0,-99.9,31.62,North,-999,-999.0,-999.0,-999,0.00,,,0.00,,weatherlink.com 1.10,2013-02-25 15:12:00,
2013-02-25 08:27:00,-999.0,-99.9,31.61,North,-999,-999.0,-999.0,-999,0.00,,,0.00,,weatherlink.com 1.10,2013-02-25 15:27:00,
2013-02-25 08:42:00,-999.0,-99.9,31.61,North,-999,-999.0,-999.0,-999,0.00,,,0.00,,weatherlink.com 1.10,2013-02-25 15:42:00,
2013-02-25 08:57:00,28.5,15.0,31.60,SSE,167,13.0,19.0,57,0.00,,,0.00,98,weatherlink.com 1.10,2013-02-25 15:57:00,
2013-02-25 09:12:00,28.8,16.0,31.61,WNW,286,2.0,9.0,58,0.00,,,0.00,128,weatherlink.com 1.10,2013-02-25 16:12:00,
2013-02-25 09:27:00,27.0,17.0,31.61,NNW,338,0.0,2.0,66,0.00,,,0.00,151,weatherlink.com 1.10,2013-02-25 16:27:00,
2013-02-25 09:42:00,28.7,16.0,31.61,SW,228,6.0,6.0,59,0.00,,,0.00,169,weatherlink.com 1.10,2013-02-25 16:42:00,
2013-02-25 09:57:00,29.7,16.0,31.61,South,175,8.0,11.0,56,0.00,,,0.00,172,weatherlink.com 1.10,2013-02-25 16:57:00,
2013-02-25 10:13:00,30.5,16.0,31.60,South,175,10.0,12.0,56,0.00,,,0.00,250,weatherlink.com 1.10,2013-02-25 17:13:00,
2013-02-25 10:28:00,30.8,16.0,31.60,SSE,161,6.0,15.0,55,0.00,,,0.00,155,weatherlink.com 1.10,2013-02-25 17:28:00,
2013-02-25 10:43:00,30.1,16.0,31.60,South,173,7.0,11.0,56,0.00,,,0.00,125,weatherlink.com 1.10,2013-02-25 17:43:00,
2013-02-25 10:58:00,30.0,17.0,31.60,WSW,248,4.0,12.0,59,0.00,,,0.00,123,weatherlink.com 1.10,2013-02-25 17:58:00,
2013-02-25 11:13:00,29.5,18.0,31.60,SW,233,3.0,7.0,62,0.00,,,0.00,167,weatherlink.com 1.10,2013-02-25 18:13:00,
2013-02-25 11:28:00,30.2,18.0,31.59,South,171,8.0,11.0,62,0.00,,,0.00,223,weatherlink.com 1.10,2013-02-25 18:28:00,
2013-02-25 11:43:00,31.7,19.0,31.60,SSW,203,7.0,11.0,59,0.00,,,0.00,279,weatherlink.com 1.10,2013-02-25 18:43:00,
2013-02-25 11:58:00,32.0,21.0,31.60,SW,215,8.0,15.0,64,0.00,,,0.00,206,weatherlink.com 1.10,2013-02-25 18:58:00,
2013-02-25 12:13:00,31.9,20.0,31.60,South,171,5.0,13.0,63,0.00,,,0.00,218,weatherlink.com 1.10,2013-02-25 19:13:00,
2013-02-25 12:28:00,31.9,22.0,31.60,SSE,165,13.0,16.0,67,0.00,,,0.00,185,weatherlink.com 1.10,2013-02-25 19:28:00,
2013-02-25 12:43:00,32.0,23.0,31.60,SSE,165,11.0,18.0,69,0.00,,,0.00,230,weatherlink.com 1.10,2013-02-25 19:43:00,
2013-02-25 12:58:00,32.1,24.0,31.60,South,173,7.0,17.0,71,0.00,,,0.00,123,weatherlink.com 1.10,2013-02-25 19:58:00,
2013-02-25 13:13:00,32.0,26.0,31.59,SSE,162,9.0,20.0,78,0.00,,,0.00,158,weatherlink.com 1.10,2013-02-25 20:13:00,
2013-02-25 13:28:00,32.8,26.0,31.59,SSW,195,7.0,20.0,75,0.00,,,0.00,221,weatherlink.com 1.10,2013-02-25 20:28:00,
2013-02-25 13:43:00,33.3,26.0,31.59,SW,223,10.0,13.0,73,0.00,,,0.00,204,weatherlink.com 1.10,2013-02-25 20:43:00,
2013-02-25 13:58:00,33.9,25.0,31.59,South,177,11.0,13.0,69,0.00,,,0.00,269,weatherlink.com 1.10,2013-02-25 20:58:00,
2013-02-25 14:13:00,34.0,22.0,31.58,South,191,13.0,17.0,62,0.00,,,0.00,199,weatherlink.com 1.10,2013-02-25 21:13:00,
2013-02-25 14:28:00,33.8,22.0,31.59,SSW,211,7.0,18.0,62,0.00,,,0.00,234,weatherlink.com 1.10,2013-02-25 21:28:00,
2013-02-25 14:43:00,34.2,23.0,31.59,South,178,10.0,17.0,65,0.00,,,0.00,229,weatherlink.com 1.10,2013-02-25 21:43:00,
2013-02-25 14:58:00,33.6,23.0,31.60,SSW,206,8.0,17.0,65,0.00,,,0.00,137,weatherlink.com 1.10,2013-02-25 21:58:00,
2013-02-25 15:13:00,33.8,23.0,31.61,SW,214,6.0,11.0,65,0.00,,,0.00,199,weatherlink.com 1.10,2013-02-25 22:13:00,
2013-02-25 15:28:00,33.7,24.0,31.60,SSW,202,7.0,9.0,67,0.00,,,0.00,250,weatherlink.com 1.10,2013-02-25 22:28:00,
2013-02-25 15:43:00,33.4,23.0,31.60,WNW,300,3.0,8.0,65,0.00,,,0.00,323,weatherlink.com 1.10,2013-02-25 22:43:00,
2013-02-25 15:58:00,34.1,22.0,31.61,WSW,242,3.0,10.0,61,0.00,,,0.00,209,weatherlink.com 1.10,2013-02-25 22:58:00,
2013-02-25 16:13:00,34.9,20.0,31.61,WSW,237,6.0,12.0,55,0.00,,,0.00,404,weatherlink.com 1.10,2013-02-25 23:13:00,
2013-02-25 16:28:00,35.4,18.0,31.60,West,281,6.0,14.0,50,0.00,,,0.00,462,weatherlink.com 1.10,2013-02-25 23:28:00,
2013-02-25 16:43:00,34.7,18.0,31.61,WNW,294,11.0,22.0,50,0.00,,,0.00,105,weatherlink.com 1.10,2013-02-25 23:43:00,
2013-02-25 16:58:00,33.7,17.0,31.61,NW,309,5.0,13.0,50,0.00,,,0.00,107,weatherlink.com 1.10,2013-02-25 23:58:00,
2013-02-25 17:13:00,32.9,17.0,31.61,SW,223,11.0,16.0,52,0.00,,,0.00,58,weatherlink.com 1.10,2013-02-26 00:13:00,
2013-02-25 17:28:00,32.6,16.0,31.61,WSW,237,5.0,13.0,51,0.00,,,0.00,35,weatherlink.com 1.10,2013-02-26 00:28:00,
2013-02-25 17:43:00,32.1,19.0,31.60,SSW,200,5.0,19.0,58,0.00,,,0.00,40,weatherlink.com 1.10,2013-02-26 00:43:00,
2013-02-25 17:58:00,31.4,20.0,31.61,South,171,7.0,10.0,64,0.00,,,0.00,16,weatherlink.com 1.10,2013-02-26 00:58:00,
2013-02-25 18:13:00,30.9,21.0,31.61,SSE,163,9.0,12.0,66,0.00,,,0.00,5,weatherlink.com 1.10,2013-02-26 01:13:00,
2013-02-25 18:28:00,30.6,21.0,31.62,South,178,9.0,11.0,67,0.00,,,0.00,0,weatherlink.com 1.10,2013-02-26 01:28:00,
2013-02-25 18:43:00,30.6,21.0,31.62,SSW,201,7.0,10.0,68,0.00,,,0.00,0,weatherlink.com 1.10,2013-02-26 01:43:00,
2013-02-25 18:58:00,30.5,21.0,31.63,SE,146,4.0,10.0,68,0.00,,,0.00,0,weatherlink.com 1.10,2013-02-26 01:58:00,
2013-02-25 19:13:00,30.2,20.0,31.62,SSE,161,9.0,12.0,67,0.00,,,0.00,0,weatherlink.com 1.10,2013-02-26 02:13:00,
2013-02-25 19:28:00,30.5,20.0,31.64,South,182,8.0,8.0,66,0.00,,,0.00,0,weatherlink.com 1.10,2013-02-26 02:28:00,
2013-02-25 19:43:00,30.6,21.0,31.64,South,175,3.0,8.0,67,0.00,,,0.00,0,weatherlink.com 1.10,2013-02-26 02:43:00,
2013-02-25 19:58:00,30.2,21.0,31.65,SSE,151,9.0,11.0,69,0.00,,,0.00,0,weatherlink.com 1.10,2013-02-26 02:58:00,
2013-02-25 20:13:00,29.8,21.0,31.65,SE,130,9.0,16.0,71,0.00,,,0.00,0,weatherlink.com 1.10,2013-02-26 03:13:00,
2013-02-25 20:28:00,29.3,21.0,31.66,SE,130,10.0,17.0,72,0.00,,,0.00,0,weatherlink.com 1.10,2013-02-26 03:28:00,
2013-02-25 20:43:00,28.3,22.0,31.66,SE,139,10.0,15.0,78,0.00,,,0.00,0,weatherlink.com 1.10,2013-02-26 03:43:00,
2013-02-25 20:58:00,28.4,22.0,31.66,South,173,10.0,14.0,78,0.00,,,0.00,0,weatherlink.com 1.10,2013-02-26 03:58:00,
2013-02-25 21:13:00,28.2,22.0,31.66,SE,136,10.0,15.0,77,0.00,,,0.00,0,weatherlink.com 1.10,2013-02-26 04:13:00,
2013-02-25 21:28:00,28.4,21.0,31.67,SSE,152,8.0,13.0,75,0.00,,,0.00,0,weatherlink.com 1.10,2013-02-26 04:28:00,
2013-02-25 21:43:00,29.1,20.0,31.67,SSE,160,6.0,14.0,70,0.00,,,0.00,0,weatherlink.com 1.10,2013-02-26 04:43:00,
2013-02-25 21:58:00,28.5,21.0,31.68,SSE,149,7.0,13.0,73,0.00,,,0.00,0,weatherlink.com 1.10,2013-02-26 04:58:00,
2013-02-25 22:13:00,27.8,22.0,31.69,WNW,289,0.0,3.0,80,0.00,,,0.00,0,weatherlink.com 1.10,2013-02-26 05:13:00,
2013-02-25 22:28:00,27.0,23.0,31.70,NW,314,0.0,2.0,83,0.00,,,0.00,0,weatherlink.com 1.10,2013-02-26 05:28:00,
2013-02-25 22:43:00,26.6,22.0,31.70,NNW,345,5.0,10.0,83,0.00,,,0.00,0,weatherlink.com 1.10,2013-02-26 05:43:00,
2013-02-25 22:58:00,27.0,22.0,31.70,NW,325,2.0,2.0,81,0.00,,,0.00,0,weatherlink.com 1.10,2013-02-26 05:58:00,
2013-02-25 23:13:00,27.0,23.0,31.71,NW,321,0.0,3.0,83,0.00,,,0.00,0,weatherlink.com 1.10,2013-02-26 06:13:00,
2013-02-25 23:28:00,26.6,22.0,31.71,NE,41,0.0,2.0,84,0.00,,,0.00,0,weatherlink.com 1.10,2013-02-26 06:28:00,
2013-02-25 23:43:00,26.5,21.0,31.72,NE,46,1.0,3.0,81,0.00,,,0.00,0,weatherlink.com 1.10,2013-02-26 06:43:00,
2013-02-25 23:58:00,27.9,21.0,31.71,South,178,0.0,10.0,75,0.00,,,0.00,0,weatherlink.com 1.10,2013-02-26 06:58:00,